This demonstration page uses our WeatherBlox Daily Observations layout. Learn more.

Left ArrowRight Arrow

34.16533, -84.80231

Hourly Observations for October 15, 2015

Temp ( °F °C ) Dew Point ( °F °C ) Humidity (%) Winds ( mph kmh ) Pressure ( in mb ) Visibility ( mi km ) Precip ( " mm )
12:53 am 00:53 Clear 50 10 49 9.4 96 96 Calm 30.05 1018 10 16 0.00 0.00
1:53 am 01:53 Clear 50 10 49 9.4 96 96 Calm 30.06 1018 10 16 0.00 0.00
2:53 am 02:53 Clear 49 9.4 48 8.9 97 97 Calm 30.06 1018 10 16 0.00 0.00
3:53 am 03:53 Clear 48 8.9 47 8.3 96 96 Calm 30.07 1018 10 16 0.00 0.00
4:02 am 04:02 Partly Cloudy 47 8.3 46 7.8 97 97 Calm 30.09 1019 10 16 0.00 0.00
4:10 am 04:10 Mostly Cloudy 48 8.9 47 8.3 96 96 Calm 30.09 1019 10 16 0.00 0.00
4:40 am 04:40 Partly Cloudy 48 8.9 47 8.3 96 96 Calm 30.09 1019 10 16 0.00 0.00
4:53 am 04:53 Clear 47 8.3 47 8.3 100 100 Calm 30.08 1019 10 16 0.00 0.00
5:53 am 05:53 Clear 47 8.3 46 7.8 97 97 Calm 30.09 1019 10 16 0.00 0.00
6:51 am 06:51 Partly Cloudy 46 8 45 7 93 93 Calm 30.12 1020 10 16 0.00 0.00
6:53 am 06:53 Partly Cloudy with Mist and Fog 46 7.8 45 7.2 96 96 Calm 30.11 1020 5 8 0.00 0.00
6:58 am 06:58 Mostly Cloudy with Mist and Fog 47 8.3 46 7.8 97 97 Calm 30.15 1021 3 4 0.00 0.00
7:07 am 07:07 Mostly Cloudy with Mist and Fog 46 7.8 45 7.2 96 96 Calm 30.15 1021 1 1 0.00 0.00
7:32 am 07:32 Cloudy with Mist and Fog 47 8.3 46 7.8 97 97 Calm 30.15 1021 2 3 0.00 0.00
7:44 am 07:44 Cloudy with Mist and Fog 47 8.3 47 8.3 100 100 Calm 30.15 1021 1 1 0.00 0.00
7:53 am 07:53 Mostly Cloudy with Fog 47 8.3 47 8.3 100 100 Calm 30.13 1020 0 0 0.00 0.00
8:09 am 08:09 Mostly Cloudy with Mist and Fog 47 8.3 47 8.3 100 100 Calm 30.15 1021 1 2 0.00 0.00
8:29 am 08:29 Cloudy with Mist and Fog 48 8.9 48 8.9 100 100 Calm 30.15 1021 1 1 0.00 0.00
8:53 am 08:53 Mostly Cloudy with Mist and Fog 49 9.4 48 8.9 97 97 Calm 30.16 1021 1 2 0.00 0.00
9:00 am 09:00 Mostly Cloudy with Mist and Fog 49 9.4 49 9.4 100 100 Calm 30.18 1022 3 5 0.00 0.00
9:28 am 09:28 Partly Cloudy 52 11.1 51 10.6 97 97 Calm 30.18 1022 10 16 0.00 0.00
9:53 am 09:53 Sunny 54 12.2 53 11.7 97 97 Calm 30.17 1022 10 16 0.00 0.00
10:53 am 10:53 Sunny 62 16.7 53 11.7 73 73 Calm 30.18 1022 10 16 0.00 0.00
11:53 am 11:53 Sunny 68 20 53 11.7 59 59 Calm 30.16 1022 10 16 0.00 0.00
12:53 pm 12:53 Sunny 74 23.3 48 8.9 40 40 N 5 7 30.15 1021 10 16 0.00 0.00
1:53 pm 13:53 Sunny 75 23.9 48 8.9 39 39 Calm 30.12 1020 10 16 0.00 0.00
2:53 pm 14:53 Sunny 76 24.4 49 9.4 39 39 Calm 30.09 1019 10 16 0.00 0.00
3:53 pm 15:53 Sunny 78 25.6 49 9.4 36 36 Calm 30.08 1019 10 16 0.00 0.00
4:53 pm 16:53 Sunny 78 25.6 49 9.4 36 36 Calm 30.07 1018 10 16 0.00 0.00
5:53 pm 17:53 Sunny 73 22.8 57 13.9 57 57 S 3 6 30.07 1018 10 16 0.00 0.00
6:53 pm 18:53 Sunny 62 16.7 58 14.4 86 86 Calm 30.08 1019 10 16 0.00 0.00
7:53 pm 19:53 Clear 58 14.4 56 13.3 93 93 Calm 30.09 1019 10 16 0.00 0.00
8:53 pm 20:53 Clear 57 13.9 55 12.8 93 93 Calm 30.11 1020 10 16 0.00 0.00
9:53 pm 21:53 Clear 56 13.3 54 12.2 93 93 Calm 30.11 1020 10 16 0.00 0.00
10:53 pm 22:53 Clear 54 12.2 53 11.7 97 97 Calm 30.11 1020 10 16 0.00 0.00
11:53 pm 23:53 Clear 53 11.7 52 11.1 96 96 Calm 30.11 1020 10 16 0.00 0.00

Powered by AerisWeather